Location: Dzierzno
(50.6159°N, 19.2852°E)
Time: 23:27:33
(UTC+00:00)

Cosmos 1300 Rocket - Pass Details

Date: 18 November 2025
Orbit: 594 x 620 km, 82.5° (Epoch: 05 December)

Event Time Altitude Azimuth Distance (km) Brightness Sun altitude
Rises 15:49:47 0° 191° (SSW) 2,879 7.4 -9.0°
Reaches altitude 10° 15:52:00 10° 193° (SSW) 1,976 6.6 -9.4°
Maximum altitude 15:56:23 80° 281° (W) 631 3.7 -10.0°
Drops below altitude 10° 16:00:46 10° 8° (N) 1,978 5.9 -10.7°
Sets 16:03:00 0° 10° (N) 2,883 6.7 -11.0°
